[[{"header":{"parameterUnit":"m.s-1","parameterCategory":2,"la1":30.2991,"la2":30.254,"lo1":-89.0895,"lo2":-89.0444,"dy":0.0017,"dx":0.0017,"nx":28,"ny":28,"refTime":"2025-07-19T03:00:00:Z","depth":"0","parameterNumber":2,"parameterNumberName":"U-component_of_CURRENTS"},"data":[0,0,0,0,0,0,0,0,0,0,0,0,0,0,0,0,0,0,0,0,0,0,0,0,0,0,0,0,0,0,0,0,0,0,0,0,0,0,0,0,0,0,0,0,0,0,0,0,0,0,0,0,0,0,0,0,0,0,0.3544,0.3544,0,0.3482,0.3481,0.348,0.3404,0.3403,0.3403,0.3402,0.3284,0.3282,0.3279,0,0,0,0,0,0,0,0,0,0,0,0,0,0.3565,0.3565,0.3544,0.3544,0.3544,0.3482,0.3481,0.3479,0.3404,0.3403,0.3403,0.3402,0.3285,0.3282,0.3279,0,0,0,0,0,0,0,0,0,0,0,0,0,0.3529,0.3565,0.3544,0.3503,0.35,0.3483,0.3481,0.3479,0.3404,0.3403,0.3402,0.3402,0.3286,0.3282,0.3278,0.3274,0,0,0.3267,0.3265,0,0,0,0,0,0,0,0,0.3531,0.3528,0.351,0.3506,0.3502,0.3455,0.3445,0.341,0.3405,0.3434,0.3402,0.3401,0.3341,0.3332,0.3315,0.3268,0.3263,0.3266,0.3264,0.3262,0.3261,0,0,0,0,0,0,0,0.3534,0.353,0.3514,0.351,0.3505,0.3477,0.3471,0.3438,0.3388,0.3431,0.3427,0.343,0.3337,0.3319,0.3312,0.3261,0.3266,0.3263,0.3261,0.3259,0.3184,0.3184,0,0,0,0,0,0,0.3557,0.3533,0.3516,0.3512,0.3522,0.3478,0.3471,0.3466,0.3389,0.3379,0.3431,0.3427,0.3326,0.3316,0.3307,0.3306,0.3262,0.3259,0.3257,0.3183,0.3184,0.3184,0,0,0,0,0,0,0.3557,0.3555,0.3518,0.3526,0.352,0.348,0.3475,0.3466,0.345,0.3391,0.3378,0.3427,0.3325,0.3312,0.3273,0.3301,0.3257,0.3254,0.3183,0.3184,0.3184,0.3298,0,0,0,0,0,0,0.3558,0.3556,0.3558,0.3528,0.3521,0.352,0.3476,0.3465,0.3456,0.345,0.3383,0.337,0.3323,0.328,0.327,0.3294,0.3251,0.3183,0.3183,0.3184,0.3294,0.3302,0.331,0,0,0,0,0,0.3559,0.3569,0.3559,0.3557,0.3526,0.3522,0.3515,0.3479,0.3458,0.3459,0.3403,0.3373,0.3276,0.3277,0.3265,0.3289,0.3182,0.3183,0.3184,0.329,0.3301,0.3309,0,0,0,0,0,0,0.3572,0.3562,0.355,0.3553,0.3546,0.3512,0.3515,0.349,0.3448,0.3445,0.3374,0.3358,0.3338,0.3292,0.3294,0.3266,0.3226,0.3224,0.3311,0.332,0.3328,0.3472,0.3247,0,0,0,0,0,0.3581,0.3591,0.3574,0.3581,0.3582,0.3551,0.3545,0.3529,0.3493,0.3474,0.3422,0.337,0.3332,0.3309,0.327,0.3253,0.3314,0.3259,0.3267,0.3274,0.3382,0.3491,0.3522,0.3186,0.3186,0.3186,0,0,0.3592,0.3588,0.3593,0.3586,0.3577,0.3589,0.3543,0.3553,0.3565,0.3469,0.3457,0.3401,0.3334,0.3315,0.3303,0.328,0.3385,0.3275,0.3282,0.3389,0.3496,0.353,0.356,0.3187,0.3187,0.3187,0,0,0.3623,0.3615,0.3634,0.3636,0.3641,0.3629,0.3638,0.3613,0.3604,0.3586,0.3524,0.3517,0.3416,0.3414,0.3388,0.3425,0.3427,0.336,0.3518,0.3619,0.3651,0.368,0.3748,0.3783,0.336,0.336,0.336,0,0.3633,0.3649,0.364,0.366,0.3672,0.3652,0.3679,0.3675,0.3638,0.3657,0.3598,0.3555,0.3495,0.3528,0.3538,0.3458,0.3496,0.3483,0.364,0.367,0.3698,0.3762,0.3798,0.3366,0.3365,0.3365,0.3364,0,0.3677,0.3691,0.3708,0.3727,0.3742,0.3765,0.377,0.3785,0.3766,0.3766,0.3796,0.3734,0.3725,0.3678,0.3622,0.3761,0.3716,0.3643,0.3637,0.374,0.3797,0.3834,0.3374,0.3372,0.337,0.3369,0,0,0.3687,0.3728,0.373,0.3744,0.3782,0.3787,0.385,0.3895,0.393,0.3933,0.3991,0.398,0.3979,0.396,0.3887,0.3988,0.4178,0.3915,0.3917,0.4024,0.4394,0.4309,0.4339,0.4122,0.413,0.4136,0.4338,0,0.3718,0.3754,0.3783,0.3825,0.3842,0.3877,0.3922,0.3973,0.3993,0.4037,0.4083,0.4081,0.4067,0.4036,0.4166,0.4148,0.4288,0.4132,0.4249,0.4254,0.42,0.4385,0.4194,0.4357,0.4374,0.438,0.4384,0,0.3742,0.3761,0.3802,0.3857,0.387,0.3896,0.3975,0.4016,0.4118,0.414,0.4244,0.4235,0.4386,0.4322,0.455,0.4438,0.4493,0.4508,0.4512,0.4455,0.4242,0.4262,0.4422,0.4259,0.444,0.4436,0.4431,0,0.3716,0.3773,0.3799,0.3815,0.3876,0.3913,0.3951,0.4045,0.4077,0.4206,0.4227,0.4416,0.4438,0.4618,0.4674,0.4621,0.4903,0.4796,0.4806,0.4795,0.4683,0.465,0.4755,0.5057,0.5057,0.5056,0.5056,0,0.372,0.3739,0.3775,0.378,0.381,0.3878,0.3924,0.3996,0.4092,0.4144,0.4269,0.4335,0.452,0.4654,0.4762,0.4912,0.4987,0.4947,0.4893,0.4701,0.467,0.4557,0.4453,0.5064,0.5062,0.5061,0.5059,0,0.3679,0.371,0.3726,0.3776,0.3787,0.38,0.386,0.3897,0.3999,0.4072,0.4109,0.4296,0.4491,0.4658,0.4892,0.4959,0.4977,0.5145,0.4896,0.4814,0.4665,0.4572,0.4591,0.4468,0.5239,0.5239,0.5239,0,0.3658,0.3659,0.3681,0.3673,0.3687,0.371,0.3729,0.3833,0.3876,0.4041,0.4075,0.4269,0.4407,0.4727,0.4891,0.5113,0.4954,0.5038,0.495,0.4741,0.4599,0.4416,0.4296,0.4814,0.481,0.4807,0.4805,0,0.3609,0.3611,0.3616,0.359,0.3589,0.3596,0.3634,0.3647,0.3783,0.386,0.3995,0.4117,0.4407,0.4562,0.4818,0.4927,0.4766,0.4985,0.4852,0.4412,0.4144,0.3963,0.4561,0.4779,0.4781,0.4783,0.4785,0.4786,0.3557,0.3535,0.3525,0.3503,0.3494,0.348,0.3463,0.3528,0.3585,0.3697,0.3877,0.4021,0.4242,0.4591,0.4665,0.4615,0.4617,0.4524,0.4471,0.434,0.4114,0.4664,0.4749,0.4752,0.4754,0.4756,0.4757,0,0.3486,0.3467,0.344,0.3397,0.3356,0.3388,0.3397,0.3382,0.342,0.3575,0.3702,0.3868,0.4016,0.4166,0.4221,0.4114,0.3975,0.4003,0.3705,0.3648,0.4227,0.4097,0.394,0.394,0.3941,0.3941,0.3941,0.3941,0.3443,0.3394,0.3381,0.3278,0.3247,0.3171,0.3164,0.3166,0.324,0.3294,0.3363,0.3489,0.3663,0.3798,0.3692,0.3624,0.3352,0.3232,0.3235,0.3612,0.3655,0.3695,0.3553,0.3285,0.3284,0.2524,0.2517,0.2513]},{"header":{"parameterUnit":"m.s-1","parameterCategory":2,"la1":30.2991,"la2":30.254,"lo1":-89.0895,"lo2":-89.0444,"dy":0.0017,"dx":0.0017,"nx":28,"ny":28,"refTime":"2025-07-19T03:00:00:Z","depth":"0","parameterNumber":3,"parameterNumberName":"V-component_of_CURRENTS"},"data":[0,0,0,0,0,0,0,0,0,0,0,0,0,0,0,0,0,0,0,0,0,0,0,0,0,0,0,0,0,0,0,0,0,0,0,0,0,0,0,0,0,0,0,0,0,0,0,0,0,0,0,0,0,0,0,0,0,0,0.0177,0.0176,0,0.0051,0.0049,0.0048,0.0,0.0,0.0001,0.0001,-0.0084,-0.0087,-0.0089,0,0,0,0,0,0,0,0,0,0,0,0,0,0.0367,0.0364,0.0177,0.0176,0.0174,0.0051,0.0049,0.0048,0.0,0.0,0.0001,0.0001,-0.0083,-0.0086,-0.0089,0,0,0,0,0,0,0,0,0,0,0,0,0,0.0268,0.0363,0.0178,0.0135,0.013,0.0051,0.0049,0.0047,-0.0,0.0,0.0001,0.0001,-0.0082,-0.0086,-0.009,-0.0122,0,0,-0.0101,-0.0103,0,0,0,0,0,0,0,0,0.0274,0.0261,0.0143,0.0138,0.0132,0.0041,0.0085,-0.0008,-0.0,0.005,0.0001,0.0001,-0.0039,-0.0047,-0.0071,-0.0126,-0.013,-0.0102,-0.0104,-0.0106,-0.0107,0,0,0,0,0,0,0,0.0281,0.0266,0.0128,0.0141,0.0134,0.0118,0.0105,0.0067,0.0006,0.0046,0.0042,0.0026,-0.0042,-0.0067,-0.0073,-0.0131,-0.0102,-0.0105,-0.0107,-0.0109,-0.0202,-0.0202,0,0,0,0,0,0,0.0294,0.0272,0.0132,0.0124,0.0204,0.0114,0.0099,0.007,0.0005,-0.0005,0.0026,0.0024,-0.0061,-0.0069,-0.0076,-0.0066,-0.0106,-0.0109,-0.0111,-0.0202,-0.0202,-0.0202,0,0,0,0,0,0,0.0298,0.0282,0.0137,0.0196,0.0176,0.0111,0.0078,0.0067,0.004,-0.0011,-0.002,0.001,-0.0061,-0.0071,-0.0106,-0.0071,-0.0111,-0.0114,-0.0202,-0.0202,-0.0202,-0.0078,0,0,0,0,0,0,0.0304,0.0284,0.0267,0.0196,0.0173,0.0093,0.0077,0.0065,0.0029,0.0026,-0.0028,-0.0035,-0.0061,-0.01,-0.0109,-0.0077,-0.0117,-0.0201,-0.0202,-0.0202,-0.0082,-0.0074,-0.0067,0,0,0,0,0,0.0311,0.0285,0.0266,0.0249,0.0151,0.0092,0.0079,0.0035,0.0028,0.0014,-0.0017,-0.0034,-0.0109,-0.0103,-0.0115,-0.0082,-0.0201,-0.0202,-0.0202,-0.0085,-0.0075,-0.0067,0,0,0,0,0,0,0.0352,0.0275,0.0254,0.0204,0.0154,0.0084,0.0067,0.0035,-0.0004,0.0002,-0.0042,-0.0052,-0.0066,-0.0107,-0.01,-0.0115,-0.0156,-0.0158,-0.0063,-0.0055,-0.0047,0.0036,-0.0121,0,0,0,0,0,0.0355,0.0322,0.0247,0.0212,0.019,0.013,0.0101,0.0072,0.0027,0.001,-0.0028,-0.0062,-0.0079,-0.0092,-0.0126,-0.0141,-0.0124,-0.013,-0.0123,-0.0116,-0.0059,0.001,0.0031,-0.0204,-0.0204,-0.0204,0,0,0.0366,0.0317,0.0301,0.0221,0.0184,0.0168,0.0115,0.0077,0.0079,0.0008,-0.0,-0.0041,-0.0081,-0.0086,-0.0096,-0.0113,-0.0056,-0.0116,-0.0109,-0.0055,0.0012,0.0036,0.0057,-0.0204,-0.0204,-0.0204,0,0,0.039,0.0328,0.0322,0.0285,0.0228,0.0191,0.0182,0.0114,0.01,0.0068,0.0041,0.0034,-0.0039,-0.0025,-0.0033,-0.0009,-0.002,-0.0048,0.0066,0.0131,0.0153,0.0173,0.0176,0.0196,-0.0041,-0.0041,-0.004,0,0.041,0.0385,0.0312,0.0303,0.0292,0.021,0.0222,0.0188,0.012,0.0143,0.008,0.0066,0.0013,0.0079,0.0078,0.002,0.0028,0.0043,0.015,0.017,0.0188,0.0187,0.0207,-0.0035,-0.0035,-0.0036,-0.0036,0,0.0438,0.0421,0.0416,0.0386,0.0363,0.035,0.0304,0.0292,0.0257,0.0241,0.0272,0.0208,0.0221,0.0182,0.0133,0.0238,0.0188,0.0155,0.0148,0.0221,0.0212,0.0231,-0.0026,-0.0028,-0.003,-0.0031,0,0,0.0475,0.0446,0.0445,0.0469,0.041,0.0404,0.0419,0.043,0.0489,0.0421,0.0506,0.0458,0.0444,0.0435,0.0381,0.0421,0.0512,0.0346,0.0347,0.0386,0.0623,0.0522,0.0532,0.0504,0.0509,0.0513,0.0548,0,0.0526,0.055,0.0517,0.0563,0.058,0.054,0.0573,0.0581,0.0574,0.0625,0.0607,0.0637,0.0534,0.0544,0.058,0.0537,0.0576,0.0504,0.0516,0.0517,0.045,0.0557,0.0488,0.051,0.0567,0.057,0.0572,0,0.0564,0.0583,0.0637,0.0688,0.0696,0.0717,0.0795,0.0812,0.0866,0.0867,0.0915,0.0879,0.0933,0.0816,0.0853,0.081,0.0746,0.0698,0.0697,0.0594,0.0455,0.0451,0.0542,0.0323,0.0601,0.0598,0.0596,0,0.0635,0.067,0.0729,0.0735,0.077,0.0823,0.085,0.0904,0.0953,0.1036,0.1078,0.113,0.1142,0.1123,0.099,0.0941,0.101,0.0925,0.0781,0.0769,0.0713,0.0689,0.064,0.0988,0.0988,0.0987,0.0987,0,0.0687,0.0735,0.0777,0.0807,0.0913,0.0917,0.1035,0.107,0.115,0.1241,0.1217,0.1293,0.1223,0.1218,0.1103,0.1007,0.1105,0.0853,0.0808,0.074,0.0719,0.0525,0.041,0.0989,0.0988,0.0988,0.0988,0,0.073,0.075,0.0828,0.0905,0.0939,0.1015,0.111,0.1197,0.1259,0.1379,0.1407,0.1443,0.1442,0.1339,0.1291,0.1135,0.0927,0.0986,0.0875,0.0816,0.0452,0.0346,0.0309,0.0222,0.0858,0.0856,0.0855,0,0.0746,0.0789,0.0893,0.0947,0.0981,0.1086,0.1159,0.1239,0.1327,0.1467,0.1536,0.1571,0.1618,0.1496,0.1252,0.1073,0.0889,0.084,0.0743,0.0472,0.0322,0.0258,0.0184,0.0691,0.0688,0.0686,0.0684,0,0.0786,0.0822,0.0889,0.0993,0.1081,0.1186,0.1299,0.1383,0.1492,0.1607,0.1755,0.1817,0.168,0.1501,0.1211,0.1035,0.0663,0.0785,0.0576,0.0272,0.0138,0.0016,0.057,0.0664,0.0666,0.0668,0.0669,0.067,0.0811,0.0862,0.0945,0.1045,0.1147,0.1272,0.1369,0.1504,0.1664,0.1875,0.1916,0.2072,0.1727,0.1342,0.1054,0.0443,0.0515,0.0257,0.0174,0.0151,0.0016,0.0494,0.0484,0.0485,0.0485,0.0486,0.0487,0,0.083,0.0889,0.0985,0.1112,0.1221,0.1274,0.1452,0.1573,0.1771,0.2014,0.2175,0.21,0.1636,0.1146,0.0336,-0.0078,-0.0212,-0.0301,-0.04,-0.0428,0.006,-0.0006,-0.0208,-0.0208,-0.0207,-0.0207,-0.0207,-0.0207,0.0844,0.0923,0.0974,0.1145,0.1239,0.14,0.1505,0.1709,0.1914,0.2211,0.235,0.242,0.1959,0.0546,-0.0418,-0.0622,-0.0881,-0.0948,-0.1028,-0.0736,-0.069,-0.0647,-0.0735,-0.1087,-0.1088,-0.149,-0.1494,-0.1498]}],[{"header":{"parameterUnit":"m.s-1","parameterCategory":2,"la1":30.2991,"la2":30.254,"lo1":-89.0895,"lo2":-89.0444,"dy":0.0017,"dx":0.0017,"nx":28,"ny":28,"refTime":"2025-07-19T03:00:00:Z","depth":"2","parameterNumber":2,"parameterNumberName":"U-component_of_CURRENTS"},"data":[0,0,0,0,0,0,0,0,0,0,0,0,0,0,0,0,0,0,0,0,0,0,0,0,0,0,0,0,0,0,0,0,0,0,0,0,0,0,0,0,0,0,0,0,0,0,0,0,0,0,0,0,0,0,0,0,0,0,0.1992,0.1991,0,0.202,0.2021,0.2022,0.2094,0.2094,0.2094,0.2095,0.224,0.2243,0.2247,0,0,0,0,0,0,0,0,0,0,0,0,0,0.1891,0.1895,0.1992,0.1991,0.199,0.202,0.2021,0.2023,0.2094,0.2094,0.2095,0.2095,0.2239,0.2243,0.2247,0,0,0,0,0,0,0,0,0,0,0,0,0,0.1941,0.1896,0.1992,0.202,0.2022,0.2019,0.2021,0.2023,0.2093,0.2094,0.2095,0.2095,0.2237,0.2243,0.2248,0.2269,0,0,0.2264,0.2266,0,0,0,0,0,0,0,0,0.1938,0.1946,0.2017,0.2018,0.202,0.2043,0.2038,0.2107,0.2093,0.2079,0.2095,0.2095,0.2177,0.2187,0.2207,0.2275,0.2282,0.2264,0.2267,0.227,0.2271,0,0,0,0,0,0,0,0.1935,0.1944,0.2015,0.2016,0.2017,0.1993,0.2003,0.2052,0.2136,0.2081,0.2083,0.2066,0.218,0.2201,0.2211,0.2284,0.2264,0.2269,0.2272,0.2274,0.2424,0.2425,0,0,0,0,0,0,0.1912,0.1942,0.2014,0.2015,0.1966,0.1994,0.2006,0.2045,0.2133,0.2142,0.2066,0.2069,0.2192,0.2204,0.2216,0.2322,0.227,0.2275,0.2278,0.2423,0.2424,0.2425,0,0,0,0,0,0,0.1911,0.1921,0.2013,0.1965,0.1974,0.1995,0.2038,0.2045,0.2075,0.2118,0.2133,0.2088,0.2193,0.2209,0.2289,0.2325,0.2277,0.2282,0.2422,0.2423,0.2424,0.2485,0,0,0,0,0,0,0.1909,0.1922,0.1946,0.1966,0.1975,0.2032,0.2037,0.2045,0.2057,0.2063,0.2142,0.2155,0.2195,0.2281,0.2294,0.2332,0.2286,0.2421,0.2423,0.2424,0.2482,0.2488,0.2494,0,0,0,0,0,0.1907,0.1957,0.1949,0.1955,0.2009,0.2031,0.2037,0.2058,0.2058,0.2086,0.2142,0.2153,0.2299,0.2287,0.2302,0.2342,0.242,0.2422,0.2424,0.248,0.2487,0.2494,0,0,0,0,0,0,0.1931,0.1967,0.196,0.2019,0.202,0.2039,0.2073,0.2059,0.2122,0.2135,0.2179,0.2199,0.2282,0.2293,0.2278,0.2383,0.2355,0.236,0.2392,0.2399,0.2405,0.243,0.229,0,0,0,0,0,0.1938,0.1994,0.1993,0.2039,0.2053,0.2056,0.2064,0.2063,0.2105,0.2133,0.2181,0.2234,0.2297,0.2334,0.2389,0.245,0.2489,0.2477,0.2483,0.2488,0.2515,0.2608,0.2626,0.2431,0.2431,0.2431,0,0,0.1957,0.1981,0.2011,0.2046,0.2068,0.21,0.2071,0.2094,0.2121,0.2139,0.223,0.2264,0.2318,0.2401,0.2435,0.2418,0.256,0.249,0.2495,0.252,0.2612,0.2631,0.2648,0.2432,0.2432,0.2432,0,0,0.201,0.2054,0.2105,0.212,0.2125,0.2135,0.2137,0.2155,0.2179,0.2238,0.2263,0.2321,0.2409,0.2459,0.2494,0.2557,0.2591,0.2557,0.2614,0.2703,0.2721,0.2737,0.2803,0.2825,0.2557,0.2557,0.2557,0,0.2018,0.2085,0.2116,0.2157,0.2168,0.2156,0.2187,0.222,0.2251,0.2282,0.228,0.2415,0.2446,0.2554,0.2575,0.2576,0.2626,0.2587,0.2714,0.2731,0.2747,0.2811,0.2835,0.256,0.256,0.256,0.2559,0,0.2092,0.214,0.2182,0.2241,0.2265,0.2291,0.2313,0.2348,0.2363,0.2383,0.248,0.2528,0.2609,0.2613,0.2625,0.2738,0.2737,0.2717,0.2704,0.2771,0.2833,0.2857,0.2565,0.2564,0.2563,0.2562,0,0,0.2114,0.2209,0.222,0.2247,0.2299,0.2323,0.2398,0.2448,0.2507,0.2546,0.2631,0.2716,0.2727,0.2765,0.2772,0.2837,0.2972,0.2828,0.2831,0.2907,0.3175,0.3031,0.3042,0.2986,0.299,0.2994,0.3172,0,0.2146,0.2223,0.2267,0.2342,0.2383,0.2414,0.249,0.2536,0.2592,0.2682,0.2725,0.2822,0.2791,0.2835,0.2899,0.296,0.3039,0.2926,0.3088,0.3093,0.2968,0.3065,0.2806,0.2931,0.3194,0.3198,0.3201,0,0.2182,0.2231,0.2299,0.2386,0.2412,0.2465,0.2572,0.2633,0.2754,0.2803,0.2897,0.2939,0.305,0.3004,0.3173,0.3109,0.3161,0.3195,0.3202,0.3068,0.2992,0.2907,0.2964,0.324,0.3237,0.3234,0.3231,0,0.215,0.2249,0.2299,0.2328,0.2434,0.2485,0.2554,0.2672,0.2731,0.2894,0.2954,0.3092,0.3164,0.3263,0.3325,0.3276,0.3504,0.3438,0.3363,0.3353,0.3163,0.3127,0.3584,0.3584,0.3583,0.3583,0.3582,0,0.2149,0.2191,0.2297,0.2324,0.24,0.2491,0.2588,0.268,0.2817,0.2902,0.3018,0.311,0.3238,0.3357,0.3404,0.3462,0.3579,0.3409,0.3404,0.317,0.3135,0.3418,0.3397,0.3589,0.3588,0.3587,0.3585,0,0.2093,0.2162,0.2222,0.2342,0.2381,0.2441,0.2573,0.264,0.2797,0.2915,0.297,0.3161,0.3332,0.344,0.3615,0.3543,0.3624,0.3618,0.3321,0.3275,0.3391,0.3371,0.3548,0.3544,0.3542,0.3539,0.3537,0,0.2064,0.2091,0.2204,0.2231,0.2285,0.2382,0.2435,0.2604,0.2683,0.293,0.2981,0.3201,0.3305,0.3501,0.3494,0.3565,0.3652,0.3309,0.3143,0.3419,0.3397,0.338,0.3364,0.2928,0.2922,0.2916,0.2912,0,0.1992,0.2037,0.2078,0.2141,0.22,0.2265,0.2378,0.2438,0.2643,0.2768,0.2965,0.3079,0.3251,0.3208,0.3273,0.3262,0.3264,0.319,0.3627,0.2944,0.284,0.2815,0.282,0.2862,0.2867,0.2871,0.2874,0.2876,0.1918,0.1923,0.1979,0.2034,0.2089,0.2152,0.2182,0.2319,0.2449,0.2585,0.2792,0.2866,0.2914,0.2873,0.2844,0.2819,0.3008,0.2849,0.2865,0.2888,0.275,0.2643,0.2605,0.2608,0.2611,0.2613,0.2616,0,0.1812,0.1837,0.1867,0.1923,0.1933,0.2027,0.2125,0.214,0.2255,0.2374,0.2492,0.2322,0.2325,0.2433,0.2307,0.2274,0.2246,0.2195,0.2151,0.2202,0.2247,0.2074,0.1751,0.1748,0.1746,0.1743,0,0,0.1752,0.1739,0.1765,0.1759,0.1803,0.1808,0.1849,0.1908,0.1987,0.1965,0.1975,0.2113,0.2294,0.1955,0.1937,0.1839,0.1997,0.1765,0.2461,0.2457,0.2498,0.263,0.2423,0,0,0,0,0]},{"header":{"parameterUnit":"m.s-1","parameterCategory":2,"la1":30.2991,"la2":30.254,"lo1":-89.0895,"lo2":-89.0444,"dy":0.0017,"dx":0.0017,"nx":28,"ny":28,"refTime":"2025-07-19T03:00:00:Z","depth":"2","parameterNumber":3,"parameterNumberName":"V-component_of_CURRENTS"},"data":[0,0,0,0,0,0,0,0,0,0,0,0,0,0,0,0,0,0,0,0,0,0,0,0,0,0,0,0,0,0,0,0,0,0,0,0,0,0,0,0,0,0,0,0,0,0,0,0,0,0,0,0,0,0,0,0,0,0,-0.0056,-0.0056,0,-0.0103,-0.0104,-0.0105,-0.0186,-0.0187,-0.0188,-0.0189,-0.0328,-0.0331,-0.0334,0,0,0,0,0,0,0,0,0,0,0,0,0,-0.0066,-0.0066,-0.0056,-0.0056,-0.0056,-0.0103,-0.0104,-0.0106,-0.0186,-0.0187,-0.0188,-0.0189,-0.0327,-0.0331,-0.0334,0,0,0,0,0,0,0,0,0,0,0,0,0,-0.0088,-0.0066,-0.0056,-0.0097,-0.01,-0.0103,-0.0104,-0.0106,-0.0186,-0.0187,-0.0188,-0.019,-0.0326,-0.033,-0.0334,-0.0334,0,0,-0.0348,-0.035,0,0,0,0,0,0,0,0,-0.0087,-0.0089,-0.0091,-0.0094,-0.0098,-0.0134,-0.0158,-0.0185,-0.0185,-0.0161,-0.0189,-0.019,-0.0266,-0.0276,-0.029,-0.0341,-0.0347,-0.0348,-0.0351,-0.0353,-0.0354,0,0,0,0,0,0,0,-0.0085,-0.0087,-0.0082,-0.009,-0.0095,-0.0122,-0.0128,-0.0164,-0.0212,-0.0163,-0.0167,-0.0161,-0.027,-0.0285,-0.0294,-0.0349,-0.0348,-0.0352,-0.0354,-0.0356,-0.046,-0.046,0,0,0,0,0,0,-0.0063,-0.0086,-0.008,-0.0082,-0.0088,-0.012,-0.0127,-0.0127,-0.021,-0.0221,-0.016,-0.0164,-0.0277,-0.0289,-0.0299,-0.0377,-0.0352,-0.0357,-0.0359,-0.046,-0.046,-0.0461,0,0,0,0,0,0,-0.0063,-0.0062,-0.0078,-0.0079,-0.0083,-0.0118,-0.0118,-0.0127,-0.0149,-0.0205,-0.022,-0.0173,-0.0279,-0.0293,-0.0347,-0.038,-0.0358,-0.0362,-0.046,-0.046,-0.046,-0.0485,0,0,0,0,0,0,-0.0063,-0.0062,-0.0058,-0.0078,-0.0081,-0.008,-0.0116,-0.0126,-0.0139,-0.0146,-0.0221,-0.0235,-0.0281,-0.034,-0.0351,-0.0386,-0.0366,-0.046,-0.046,-0.046,-0.0484,-0.0486,-0.0488,0,0,0,0,0,-0.0063,-0.0057,-0.0058,-0.0057,-0.0074,-0.0078,-0.0084,-0.0118,-0.0138,-0.0145,-0.0204,-0.0233,-0.035,-0.0344,-0.0357,-0.0393,-0.046,-0.046,-0.046,-0.0483,-0.0486,-0.0488,0,0,0,0,0,0,-0.0063,-0.0064,-0.0066,-0.0061,-0.0064,-0.009,-0.0105,-0.0112,-0.0162,-0.0177,-0.0238,-0.0256,-0.0318,-0.0337,-0.0329,-0.0419,-0.0408,-0.0411,-0.0421,-0.0424,-0.0426,-0.0392,-0.0369,0,0,0,0,0,-0.0054,-0.0054,-0.0052,-0.005,-0.0056,-0.0076,-0.0083,-0.0094,-0.0131,-0.0155,-0.0209,-0.0266,-0.0325,-0.0359,-0.0406,-0.0451,-0.0448,-0.0479,-0.0481,-0.0482,-0.0461,-0.0477,-0.0479,-0.0462,-0.0462,-0.0462,0,0,-0.0053,-0.0053,-0.0053,-0.0049,-0.0069,-0.0082,-0.0088,-0.0094,-0.0117,-0.0161,-0.0231,-0.0274,-0.0336,-0.0401,-0.0429,-0.0426,-0.0489,-0.0483,-0.0485,-0.0461,-0.0478,-0.048,-0.0481,-0.0462,-0.0462,-0.0462,0,0,-0.0052,-0.0055,-0.0055,-0.0062,-0.0064,-0.008,-0.0077,-0.0098,-0.0127,-0.0176,-0.0222,-0.0272,-0.0365,-0.0411,-0.045,-0.0479,-0.0496,-0.05,-0.0493,-0.0511,-0.0512,-0.0513,-0.0525,-0.0527,-0.0505,-0.0505,-0.0505,0,-0.0048,-0.0043,-0.0055,-0.0062,-0.0063,-0.0081,-0.0079,-0.0119,-0.0154,-0.0164,-0.0205,-0.0312,-0.0373,-0.0435,-0.0463,-0.0487,-0.0491,-0.0488,-0.0514,-0.0515,-0.0515,-0.0527,-0.0529,-0.0506,-0.0506,-0.0506,-0.0506,0,-0.0047,-0.0047,-0.0055,-0.0074,-0.0081,-0.0079,-0.0114,-0.0133,-0.0172,-0.0198,-0.0256,-0.0335,-0.0384,-0.043,-0.0474,-0.0506,-0.0506,-0.0515,-0.0509,-0.0519,-0.0531,-0.0532,-0.0508,-0.0508,-0.0507,-0.0507,0,0,-0.0026,-0.0044,-0.0047,-0.0039,-0.0074,-0.0068,-0.0119,-0.0135,-0.0134,-0.0218,-0.0224,-0.0359,-0.0366,-0.0405,-0.0452,-0.0487,-0.0526,-0.0506,-0.0507,-0.0519,-0.0559,-0.0557,-0.0559,-0.0542,-0.0542,-0.0542,-0.057,0,-0.0015,-0.0006,-0.0027,-0.0029,-0.0024,-0.0054,-0.0084,-0.0106,-0.0144,-0.0162,-0.0246,-0.0285,-0.0371,-0.0382,-0.0437,-0.0482,-0.0527,-0.0516,-0.0545,-0.0545,-0.0543,-0.0559,-0.0523,-0.0544,-0.0572,-0.0572,-0.0572,0,-0.0001,0.0009,0.0026,0.0035,0.0034,0.0022,0.0023,0.0001,-0.0043,-0.007,-0.0124,-0.0177,-0.0248,-0.0313,-0.0419,-0.0406,-0.0484,-0.0536,-0.0539,-0.0521,-0.0545,-0.0535,-0.0546,-0.0574,-0.0574,-0.0574,-0.0574,0,0.0053,0.005,0.0078,0.0074,0.0067,0.0075,0.0067,0.0039,0.0061,0.0008,0.0026,-0.0082,-0.0096,-0.0222,-0.0348,-0.0383,-0.0441,-0.05,-0.0577,-0.0578,-0.054,-0.0537,-0.0577,-0.0577,-0.0577,-0.0577,-0.0577,0,0.009,0.0109,0.0111,0.0126,0.0179,0.0143,0.0194,0.0172,0.0177,0.0232,0.0095,0.0133,-0.007,-0.0134,-0.0291,-0.0417,-0.0401,-0.0565,-0.0582,-0.055,-0.0547,-0.0562,-0.056,-0.0578,-0.0578,-0.0578,-0.0578,0,0.0151,0.0142,0.0186,0.0197,0.021,0.0251,0.0297,0.0347,0.0321,0.0395,0.0388,0.0316,0.0229,0.0034,-0.0133,-0.0306,-0.045,-0.0502,-0.0447,-0.0459,-0.0599,-0.0598,-0.0612,-0.0613,-0.0613,-0.0613,-0.0613,0,0.0187,0.0217,0.0261,0.031,0.0322,0.0375,0.0432,0.0424,0.0501,0.0528,0.06,0.0526,0.051,0.0256,-0.0047,-0.0317,-0.0374,-0.048,-0.0561,-0.0586,-0.0602,-0.06,-0.0599,-0.053,-0.0529,-0.0529,-0.0529,0,0.0274,0.0288,0.0335,0.0436,0.0503,0.059,0.0673,0.0762,0.0782,0.0854,0.0968,0.095,0.0673,0.0417,0.0012,-0.0181,-0.0446,-0.048,-0.0496,-0.0526,-0.0511,-0.0525,-0.0526,-0.0524,-0.0525,-0.0525,-0.0525,-0.0525,0.0352,0.0413,0.0484,0.0585,0.0673,0.0818,0.0922,0.1045,0.1201,0.1287,0.1247,0.119,0.0809,0.0303,-0.0,-0.0352,-0.0386,-0.0545,-0.0546,-0.0547,-0.0532,-0.0517,-0.0529,-0.0529,-0.053,-0.053,-0.053,0,0.0454,0.0524,0.0632,0.0764,0.0901,0.091,0.1102,0.1236,0.1466,0.1451,0.1502,0.1135,0.0813,0.0411,-0.0103,-0.0431,-0.0464,-0.0518,-0.05,-0.0503,-0.0506,-0.0488,-0.0475,-0.0475,-0.0475,-0.0475,0,0,0.0516,0.064,0.07,0.0949,0.1046,0.1245,0.1368,0.157,0.164,0.1645,0.153,0.133,0.0862,0.0493,0.0075,-0.0182,-0.0265,-0.0233,-0.0252,-0.0184,-0.0182,-0.0503,-0.0477,0,0,0,0,0]}],[{"header":{"parameterUnit":"m.s-1","parameterCategory":2,"la1":30.2991,"la2":30.254,"lo1":-89.0895,"lo2":-89.0444,"dy":0.0017,"dx":0.0017,"nx":28,"ny":28,"refTime":"2025-07-19T03:00:00:Z","depth":"4","parameterNumber":2,"parameterNumberName":"U-component_of_CURRENTS"},"data":[0,0,0,0,0,0,0,0,0,0,0,0,0,0,0,0,0,0,0,0,0,0,0,0,0,0,0,0,0,0,0,0,0,0,0,0,0,0,0,0,0,0,0,0,0,0,0,0,0,0,0,0,0,0,0,0,0,0,0.1004,0.1005,0,0.104,0.104,0.104,0.1063,0.1063,0.1064,0.1064,0.1107,0.1108,0.1108,0,0,0,0,0,0,0,0,0,0,0,0,0,0.0931,0.0932,0.1004,0.1005,0.1006,0.104,0.104,0.104,0.1063,0.1063,0.1064,0.1065,0.1107,0.1108,0.1108,0,0,0,0,0,0,0,0,0,0,0,0,0,0.0961,0.0933,0.1004,0.1024,0.1026,0.104,0.104,0.104,0.1063,0.1063,0.1064,0.1065,0.1107,0.1108,0.1109,0.11,0,0,0.1112,0.1112,0,0,0,0,0,0,0,0,0.0959,0.0963,0.102,0.1023,0.1025,0.1051,0.1031,0.1062,0.1063,0.1045,0.1064,0.1065,0.1091,0.1093,0.1093,0.1102,0.1104,0.1112,0.1112,0.1113,0.1113,0,0,0,0,0,0,0,0.0957,0.0962,0.1014,0.1021,0.1024,0.1024,0.1028,0.1036,0.106,0.1046,0.1049,0.1059,0.1092,0.1092,0.1094,0.1104,0.1112,0.1113,0.1113,0.1114,0.1195,0.1197,0,0,0,0,0,0,0.0961,0.096,0.1013,0.1016,0.0998,0.1025,0.103,0.1039,0.106,0.1065,0.1059,0.106,0.109,0.1093,0.1096,0.1159,0.1113,0.1114,0.1114,0.1194,0.1195,0.1197,0,0,0,0,0,0,0.096,0.0966,0.1012,0.0992,0.0998,0.1026,0.1035,0.1039,0.1067,0.107,0.1075,0.1086,0.109,0.1094,0.113,0.1158,0.1114,0.1115,0.1192,0.1194,0.1196,0.124,0,0,0,0,0,0,0.0957,0.0965,0.0978,0.0992,0.1,0.1038,0.1035,0.104,0.1072,0.1075,0.1094,0.1097,0.1091,0.1129,0.1131,0.1159,0.1116,0.119,0.1193,0.1196,0.1237,0.1244,0.125,0,0,0,0,0,0.0954,0.0961,0.0978,0.0985,0.1015,0.1039,0.1043,0.1062,0.1073,0.1088,0.1106,0.1098,0.1149,0.113,0.1133,0.1162,0.1188,0.1192,0.1195,0.1234,0.1242,0.1249,0,0,0,0,0,0,0.0933,0.0965,0.0983,0.1,0.1031,0.1045,0.106,0.1078,0.1102,0.1114,0.1114,0.1119,0.1161,0.1158,0.1138,0.1196,0.1169,0.1173,0.1197,0.1205,0.1212,0.1199,0.1117,0,0,0,0,0,0.0936,0.0955,0.0987,0.1005,0.1022,0.1049,0.1064,0.1084,0.1106,0.1118,0.1134,0.1154,0.1172,0.1187,0.12,0.1229,0.1233,0.1252,0.1259,0.1264,0.1257,0.1313,0.1324,0.1209,0.1209,0.1208,0,0,0.0933,0.0955,0.0966,0.1004,0.1026,0.1049,0.1059,0.1095,0.1117,0.1119,0.1157,0.1178,0.1186,0.122,0.1239,0.1225,0.1297,0.1269,0.1273,0.1263,0.1318,0.1329,0.1339,0.1211,0.1211,0.121,0,0,0.0929,0.096,0.0973,0.1004,0.1052,0.1066,0.1085,0.1123,0.1144,0.1185,0.1194,0.1239,0.1262,0.1278,0.1286,0.1338,0.133,0.1345,0.1367,0.1422,0.1431,0.144,0.1447,0.1456,0.1348,0.1348,0.1348,0,0.0926,0.095,0.0981,0.1009,0.1037,0.1077,0.1103,0.1125,0.1172,0.1203,0.1207,0.1272,0.1288,0.1327,0.1345,0.1353,0.1364,0.1335,0.143,0.1439,0.1447,0.1452,0.1461,0.1351,0.135,0.135,0.135,0,0.0933,0.0964,0.0977,0.1023,0.1055,0.1088,0.1129,0.1167,0.1204,0.1239,0.1303,0.1324,0.1376,0.1382,0.1376,0.1441,0.1423,0.1432,0.1407,0.1461,0.1463,0.1472,0.1354,0.1353,0.1353,0.1352,0,0,0.0889,0.0966,0.0971,0.1007,0.1072,0.1098,0.1142,0.1198,0.1248,0.1294,0.1354,0.1391,0.1435,0.1446,0.1456,0.1482,0.1551,0.148,0.1481,0.148,0.1641,0.1548,0.1548,0.1582,0.1584,0.1586,0.1615,0,0.0887,0.0932,0.0974,0.1027,0.1056,0.112,0.1157,0.1222,0.1284,0.1353,0.1393,0.1461,0.145,0.1493,0.1523,0.1559,0.1578,0.1539,0.1594,0.1595,0.1502,0.1558,0.1593,0.1621,0.1623,0.1625,0.1626,0,0.0871,0.0909,0.0956,0.1043,0.1064,0.1108,0.1201,0.1249,0.1352,0.1402,0.1481,0.1532,0.1601,0.1578,0.1653,0.1633,0.164,0.1638,0.1641,0.1542,0.1519,0.1561,0.1642,0.164,0.1639,0.1638,0.1637,0,0.0812,0.0895,0.0933,0.0965,0.1063,0.1112,0.1174,0.1278,0.134,0.1461,0.1529,0.1609,0.1675,0.1704,0.1733,0.1715,0.1782,0.1772,0.1674,0.1667,0.172,0.171,0.1806,0.1806,0.1806,0.1805,0.1805,0,0.0776,0.0811,0.0921,0.0945,0.1005,0.1103,0.1189,0.1256,0.1386,0.1456,0.1573,0.1626,0.1715,0.1771,0.1765,0.175,0.183,0.1678,0.1678,0.1735,0.1727,0.1725,0.1715,0.1806,0.1806,0.1806,0.1806,0,0.0695,0.0763,0.0822,0.0941,0.0976,0.1032,0.1184,0.1255,0.1388,0.1483,0.1533,0.168,0.175,0.1798,0.1847,0.1797,0.1787,0.1751,0.179,0.1792,0.1618,0.161,0.1655,0.1652,0.1649,0.1647,0.1646,0,0.0656,0.0674,0.0795,0.0841,0.0902,0.1005,0.1068,0.1218,0.1295,0.1483,0.1512,0.1653,0.1718,0.1722,0.1774,0.1767,0.1735,0.1721,0.1671,0.1611,0.1608,0.1604,0.16,0.1642,0.1641,0.1641,0.164,0,0.0581,0.0632,0.068,0.077,0.085,0.0922,0.1035,0.1078,0.1243,0.1376,0.147,0.1537,0.1605,0.1654,0.1669,0.1651,0.1736,0.1695,0.1699,0.1652,0.1596,0.1595,0.1593,0.1632,0.1633,0.1634,0.1634,0,0.0524,0.0545,0.0622,0.0692,0.0788,0.0838,0.0898,0.1003,0.1092,0.1302,0.1316,0.1456,0.1574,0.1592,0.1598,0.1595,0.1563,0.1507,0.1521,0.153,0.1478,0.1388,0.1365,0,0,0,0,0,0.0476,0.0492,0.0547,0.0623,0.0719,0.0767,0.088,0.0951,0.1093,0.1124,0.1228,0.1283,0.1355,0.1436,0.1405,0.1521,0.1549,0.1477,0.1485,0.1586,0.1596,0.1547,0,0,0,0,0,0,0.0443,0.0486,0.051,0.0555,0.0601,0.0681,0.0746,0.0831,0.0868,0.1024,0.1074,0.12,0.1286,0.135,0.1377,0.1395,0.1374,0.1565,0.1561,0.1581,0.1589,0.1597,0.155,0,0,0,0,0]},{"header":{"parameterUnit":"m.s-1","parameterCategory":2,"la1":30.2991,"la2":30.254,"lo1":-89.0895,"lo2":-89.0444,"dy":0.0017,"dx":0.0017,"nx":28,"ny":28,"refTime":"2025-07-19T03:00:00:Z","depth":"4","parameterNumber":3,"parameterNumberName":"V-component_of_CURRENTS"},"data":[0,0,0,0,0,0,0,0,0,0,0,0,0,0,0,0,0,0,0,0,0,0,0,0,0,0,0,0,0,0,0,0,0,0,0,0,0,0,0,0,0,0,0,0,0,0,0,0,0,0,0,0,0,0,0,0,0,0,0.0125,0.0125,0,0.0113,0.0113,0.0113,0.0084,0.0083,0.0083,0.0082,0.0065,0.0065,0.0065,0,0,0,0,0,0,0,0,0,0,0,0,0,0.0082,0.0083,0.0125,0.0125,0.0125,0.0113,0.0113,0.0113,0.0084,0.0083,0.0083,0.0082,0.0065,0.0065,0.0065,0,0,0,0,0,0,0,0,0,0,0,0,0,0.0089,0.0084,0.0125,0.0109,0.0107,0.0113,0.0113,0.0113,0.0084,0.0083,0.0082,0.0081,0.0064,0.0065,0.0065,0.0086,0,0,0.0066,0.0066,0,0,0,0,0,0,0,0,0.0089,0.0091,0.0111,0.011,0.0108,0.0099,0.0091,0.0103,0.0085,0.0093,0.0082,0.0081,0.0076,0.0075,0.0076,0.0085,0.0084,0.0066,0.0066,0.0066,0.0066,0,0,0,0,0,0,0,0.0088,0.0091,0.0121,0.0111,0.0109,0.0088,0.0088,0.0093,0.0091,0.0093,0.009,0.0089,0.0075,0.0076,0.0075,0.0084,0.0066,0.0066,0.0066,0.0066,0.0069,0.0069,0,0,0,0,0,0,0.0093,0.0091,0.0121,0.0121,0.0095,0.0089,0.009,0.0103,0.0091,0.0088,0.0089,0.0087,0.0076,0.0075,0.0074,0.0073,0.0066,0.0066,0.0066,0.0069,0.0069,0.0069,0,0,0,0,0,0,0.0092,0.0096,0.0122,0.0104,0.0105,0.0092,0.0106,0.0103,0.0102,0.0088,0.0085,0.0091,0.0075,0.0074,0.0078,0.0073,0.0066,0.0066,0.0069,0.0069,0.0069,0.0086,0,0,0,0,0,0,0.0091,0.0096,0.0109,0.0105,0.0107,0.013,0.0107,0.0104,0.0103,0.01,0.0089,0.0086,0.0074,0.0078,0.0079,0.0073,0.0066,0.0069,0.0069,0.0069,0.0085,0.0086,0.0087,0,0,0,0,0,0.009,0.0121,0.0111,0.0114,0.0125,0.013,0.013,0.0116,0.0104,0.011,0.0099,0.0086,0.0077,0.0079,0.0079,0.0073,0.0069,0.0069,0.0069,0.0085,0.0086,0.0087,0,0,0,0,0,0,0.0114,0.012,0.0109,0.0141,0.0134,0.0125,0.0135,0.0121,0.0118,0.0116,0.0097,0.0094,0.0092,0.0085,0.0088,0.0073,0.0067,0.0067,0.0079,0.008,0.0081,0.0082,0.0067,0,0,0,0,0,0.0124,0.0146,0.0139,0.0162,0.0162,0.0147,0.0147,0.0137,0.0132,0.0129,0.0118,0.0105,0.0094,0.0089,0.0084,0.0086,0.0049,0.0078,0.0079,0.008,0.0081,-0.0001,-0.0008,0.0069,0.0069,0.0069,0,0,0.0139,0.0146,0.0158,0.0168,0.0163,0.0171,0.0146,0.0153,0.0155,0.013,0.0134,0.0115,0.0097,0.0092,0.0089,0.0084,0.0044,0.008,0.0081,0.0081,-0.0002,-0.001,-0.0017,0.0069,0.0069,0.0069,0,0,0.0178,0.0186,0.0211,0.0209,0.0205,0.0196,0.0198,0.0189,0.018,0.0183,0.0155,0.013,0.0131,0.01,0.0088,0.0093,0.0053,0.0093,0.0097,0.0017,0.001,0.0003,-0.0036,-0.0047,0.009,0.009,0.009,0,0.0191,0.0222,0.0217,0.0233,0.0235,0.0209,0.0224,0.0217,0.0207,0.0193,0.0188,0.0144,0.0129,0.0097,0.0096,0.0093,0.0055,0.0094,0.0017,0.0009,0.0001,-0.0037,-0.005,0.009,0.009,0.009,0.009,0,0.0238,0.0259,0.0275,0.0285,0.0286,0.0299,0.0281,0.0275,0.0258,0.0236,0.0203,0.0171,0.0137,0.0124,0.0116,0.0057,0.0051,0.0028,0.0012,-0.0006,-0.0045,-0.0058,0.0092,0.0091,0.0091,0.0091,0,0,0.027,0.0301,0.0304,0.0313,0.0313,0.0319,0.032,0.0302,0.0288,0.0261,0.0229,0.0195,0.0157,0.014,0.0108,0.0043,-0.0036,0.0018,0.0014,-0.0023,-0.0189,-0.0158,-0.0169,-0.0081,-0.0084,-0.0086,-0.0189,0,0.03,0.0345,0.0349,0.0378,0.0395,0.0372,0.0372,0.035,0.032,0.0284,0.0221,0.0189,0.0169,0.0144,0.0074,-0.001,-0.0072,-0.0004,-0.0164,-0.0168,-0.0142,-0.0185,-0.0094,-0.0198,-0.0201,-0.0204,-0.0205,0,0.0336,0.0361,0.0404,0.0417,0.042,0.0432,0.0411,0.0409,0.0349,0.0321,0.0261,0.021,0.0126,0.0104,-0.0057,-0.0014,-0.0095,-0.0163,-0.017,-0.0157,-0.0162,-0.0182,-0.0229,-0.0227,-0.0226,-0.0224,-0.0222,0,0.0354,0.0393,0.0429,0.0437,0.0452,0.0458,0.0457,0.0417,0.0409,0.0339,0.0315,0.0204,0.0152,0.002,-0.01,-0.0093,-0.0282,-0.0295,-0.0341,-0.0338,-0.0342,-0.0334,-0.0422,-0.0421,-0.0421,-0.0421,-0.0421,0,0.0382,0.0408,0.0445,0.0464,0.0488,0.0489,0.0497,0.0472,0.0437,0.0417,0.0338,0.0293,0.0123,0.0005,-0.0113,-0.0258,-0.0297,-0.0347,-0.0375,-0.0328,-0.0317,-0.035,-0.0341,-0.0425,-0.0424,-0.0423,-0.0422,0,0.0394,0.0424,0.0464,0.0494,0.0503,0.052,0.0535,0.0532,0.0504,0.0473,0.0453,0.034,0.0189,0.0031,-0.0184,-0.0259,-0.0411,-0.0452,-0.0364,-0.0384,-0.0409,-0.0397,-0.0523,-0.0523,-0.0523,-0.0523,-0.0523,0,0.0404,0.0432,0.0484,0.0507,0.0525,0.0554,0.0568,0.0561,0.056,0.0502,0.0484,0.0349,0.0256,-0.0005,-0.0177,-0.0402,-0.0425,-0.049,-0.0472,-0.0411,-0.0426,-0.0413,-0.0402,-0.0523,-0.0523,-0.0523,-0.0523,0,0.041,0.0435,0.0462,0.0519,0.0551,0.058,0.0603,0.0609,0.0595,0.0578,0.0501,0.0368,0.0204,0.0003,-0.0166,-0.0328,-0.0447,-0.0491,-0.0492,-0.0476,-0.0412,-0.0424,-0.0413,-0.0523,-0.0523,-0.0523,-0.0523,0,0.0399,0.0419,0.0464,0.0507,0.0556,0.0585,0.06,0.0602,0.0601,0.0555,0.0527,0.036,0.0262,0.004,-0.0122,-0.0273,-0.031,-0.0345,-0.0354,-0.0356,-0.0273,-0.0166,-0.0236,0,0,0,0,0,0.0382,0.0402,0.0445,0.049,0.0547,0.0575,0.0611,0.0624,0.0625,0.0581,0.0558,0.0411,0.0178,0.0076,-0.0072,-0.0137,-0.0347,-0.0314,-0.0395,-0.0524,-0.0524,-0.0452,0,0,0,0,0,0,0.0366,0.0404,0.043,0.0474,0.0509,0.0559,0.0586,0.0586,0.0569,0.0557,0.0436,0.0388,0.0158,0.0258,-0.0073,-0.0119,-0.0185,-0.0421,-0.0423,-0.0524,-0.0524,-0.0524,-0.0449,0,0,0,0,0]}]]